Time,TemperatureF,DewpointF,PressureIn,WindDirection,WindDirectionDegrees,WindSpeedMPH,WindSpeedGustMPH,Humidity,HourlyPrecipIn,Conditions,Clouds,dailyrainin,SoftwareType,DateUTC
2013-10-05 00:01:00,73.9,71.1,30.10,SSW,208,0.0,1.0,91,0.00,,---,0.00,VWS V14.01,2013-10-05 04:01:00,
2013-10-05 00:02:00,73.9,71.4,30.10,SSW,208,0.0,1.0,92,0.00,,---,0.00,VWS V14.01,2013-10-05 04:02:00,
2013-10-05 00:08:00,73.9,71.4,30.10,SSW,208,2.0,2.0,92,0.00,,---,0.00,VWS V14.01,2013-10-05 04:08:00,
2013-10-05 00:13:00,73.8,71.3,30.10,SSW,208,1.0,2.0,92,0.00,,---,0.00,VWS V14.01,2013-10-05 04:13:00,
2013-10-05 00:18:00,73.6,71.1,30.10,WNW,284,4.0,4.0,92,0.00,,---,0.00,VWS V14.01,2013-10-05 04:18:00,
2013-10-05 00:23:00,73.3,70.8,30.10,WNW,284,3.0,4.0,92,0.00,,---,0.00,VWS V14.01,2013-10-05 04:23:00,
2013-10-05 00:28:00,72.9,70.4,30.10,WNW,286,2.0,3.0,92,0.00,,---,0.00,VWS V14.01,2013-10-05 04:28:00,
2013-10-05 00:33:00,72.7,70.2,30.10,WNW,286,2.0,3.0,92,0.00,,---,0.00,VWS V14.01,2013-10-05 04:33:00,
2013-10-05 00:38:00,72.5,70.1,30.10,WNW,286,0.0,3.0,92,0.00,,---,0.00,VWS V14.01,2013-10-05 04:38:00,
2013-10-05 00:43:00,72.4,69.6,30.10,WNW,286,1.0,3.0,91,0.00,,---,0.00,VWS V14.01,2013-10-05 04:43:00,
2013-10-05 00:48:00,72.3,69.8,30.10,WNW,286,1.0,3.0,92,0.00,,---,0.00,VWS V14.01,2013-10-05 04:48:00,
2013-10-05 00:53:00,72.3,69.2,30.09,WNW,286,1.0,3.0,90,0.00,,---,0.00,VWS V14.01,2013-10-05 04:53:00,
2013-10-05 00:58:00,72.3,69.2,30.10,WNW,286,0.0,2.0,90,0.00,,---,0.00,VWS V14.01,2013-10-05 04:58:00,
2013-10-05 01:03:00,72.3,69.2,30.10,WNW,286,1.0,2.0,90,0.00,,---,0.00,VWS V14.01,2013-10-05 05:03:00,
2013-10-05 01:08:00,72.4,69.0,30.10,WNW,286,1.0,3.0,89,0.00,,---,0.00,VWS V14.01,2013-10-05 05:08:00,
2013-10-05 01:13:00,72.4,69.3,30.09,WNW,286,2.0,3.0,90,0.00,,---,0.00,VWS V14.01,2013-10-05 05:13:00,
2013-10-05 01:19:00,72.4,69.0,30.09,WNW,286,2.0,3.0,89,0.00,,---,0.00,VWS V14.01,2013-10-05 05:19:00,
2013-10-05 01:24:00,72.4,69.3,30.10,WNW,286,0.0,3.0,90,0.00,,---,0.00,VWS V14.01,2013-10-05 05:24:00,
2013-10-05 01:29:00,72.3,69.2,30.10,WNW,286,2.0,3.0,90,0.00,,---,0.00,VWS V14.01,2013-10-05 05:29:00,
2013-10-05 01:34:00,72.2,69.1,30.09,WNW,288,0.0,3.0,90,0.00,,---,0.00,VWS V14.01,2013-10-05 05:34:00,
2013-10-05 01:39:00,72.1,69.0,30.09,WNW,288,0.0,3.0,90,0.00,,---,0.00,VWS V14.01,2013-10-05 05:39:00,
2013-10-05 01:44:00,71.9,68.8,30.09,WNW,288,0.0,3.0,90,0.00,,---,0.00,VWS V14.01,2013-10-05 05:44:00,
2013-10-05 01:49:00,71.9,68.8,30.09,WNW,288,1.0,3.0,90,0.00,,---,0.00,VWS V14.01,2013-10-05 05:49:00,
2013-10-05 01:54:00,71.8,68.7,30.09,WNW,289,0.0,3.0,90,0.00,,---,0.00,VWS V14.01,2013-10-05 05:54:00,
2013-10-05 01:59:00,71.8,68.7,30.09,WNW,289,1.0,2.0,90,0.00,,---,0.00,VWS V14.01,2013-10-05 05:59:00,
2013-10-05 02:04:00,71.8,68.7,30.09,WNW,289,0.0,2.0,90,0.00,,---,0.00,VWS V14.01,2013-10-05 06:04:00,
2013-10-05 02:09:00,71.7,68.3,30.09,WNW,289,0.0,2.0,89,0.00,,---,0.00,VWS V14.01,2013-10-05 06:09:00,
2013-10-05 02:14:00,71.7,68.3,30.09,WNW,289,0.0,2.0,89,0.00,,---,0.00,VWS V14.01,2013-10-05 06:14:00,
2013-10-05 02:19:00,71.7,68.3,30.09,WNW,289,0.0,2.0,89,0.00,,---,0.00,VWS V14.01,2013-10-05 06:19:00,
2013-10-05 02:24:00,71.6,68.2,30.09,WNW,289,0.0,2.0,89,0.00,,---,0.00,VWS V14.01,2013-10-05 06:24:00,
2013-10-05 02:29:00,71.6,67.9,30.09,WNW,289,0.0,1.0,88,0.00,,---,0.00,VWS V14.01,2013-10-05 06:29:00,
2013-10-05 02:34:00,71.5,67.8,30.08,WNW,289,0.0,3.0,88,0.00,,---,0.00,VWS V14.01,2013-10-05 06:34:00,
2013-10-05 02:40:00,71.5,67.8,30.08,WNW,289,0.0,3.0,88,0.00,,---,0.00,VWS V14.01,2013-10-05 06:40:00,
2013-10-05 02:45:00,71.5,68.1,30.08,WNW,289,1.0,3.0,89,0.00,,---,0.00,VWS V14.01,2013-10-05 06:45:00,
2013-10-05 02:50:00,71.5,67.8,30.08,WNW,289,0.0,3.0,88,0.00,,---,0.00,VWS V14.01,2013-10-05 06:50:00,
2013-10-05 02:55:00,71.4,67.7,30.08,WNW,289,0.0,3.0,88,0.00,,---,0.00,VWS V14.01,2013-10-05 06:55:00,
2013-10-05 03:00:00,71.3,67.9,30.08,WNW,289,0.0,1.0,89,0.00,,---,0.00,VWS V14.01,2013-10-05 07:00:00,
2013-10-05 03:05:00,71.2,67.5,30.08,WNW,289,0.0,1.0,88,0.00,,---,0.00,VWS V14.01,2013-10-05 07:05:00,
2013-10-05 03:10:00,71.1,67.4,30.08,WNW,289,0.0,2.0,88,0.00,,---,0.00,VWS V14.01,2013-10-05 07:10:00,
2013-10-05 03:15:00,71.1,67.4,30.07,NW,304,1.0,2.0,88,0.00,,---,0.00,VWS V14.01,2013-10-05 07:15:00,
2013-10-05 03:20:00,71.0,67.6,30.07,NW,311,0.0,2.0,89,0.00,,---,0.00,VWS V14.01,2013-10-05 07:20:00,
2013-10-05 03:25:00,71.0,67.9,30.07,NW,311,0.0,2.0,90,0.00,,---,0.00,VWS V14.01,2013-10-05 07:25:00,
2013-10-05 03:30:00,71.0,67.9,30.07,NW,311,1.0,1.0,90,0.00,,---,0.00,VWS V14.01,2013-10-05 07:30:00,
2013-10-05 03:35:00,70.8,67.7,30.07,NW,311,1.0,2.0,90,0.00,,---,0.00,VWS V14.01,2013-10-05 07:35:00,
2013-10-05 03:40:00,70.6,67.8,30.07,NW,311,0.0,3.0,91,0.00,,---,0.00,VWS V14.01,2013-10-05 07:40:00,
2013-10-05 03:45:00,70.4,67.3,30.07,NW,311,0.0,3.0,90,0.00,,---,0.00,VWS V14.01,2013-10-05 07:45:00,
2013-10-05 03:50:00,70.2,67.1,30.07,NW,311,0.0,3.0,90,0.00,,---,0.00,VWS V14.01,2013-10-05 07:50:00,
2013-10-05 03:55:00,70.1,67.0,30.07,NW,311,0.0,3.0,90,0.00,,---,0.00,VWS V14.01,2013-10-05 07:55:00,
2013-10-05 04:01:00,70.1,67.4,30.07,NW,311,0.0,2.0,91,0.00,,---,0.00,VWS V14.01,2013-10-05 08:01:00,
2013-10-05 04:06:00,70.1,67.4,30.07,NW,313,2.0,2.0,91,0.00,,---,0.00,VWS V14.01,2013-10-05 08:06:00,
2013-10-05 04:11:00,69.9,67.2,30.07,NW,319,3.0,3.0,91,0.00,,---,0.00,VWS V14.01,2013-10-05 08:11:00,
2013-10-05 04:16:00,69.9,67.2,30.07,NW,319,0.0,3.0,91,0.00,,---,0.00,VWS V14.01,2013-10-05 08:16:00,
2013-10-05 04:21:00,70.0,67.6,30.07,NW,319,0.0,3.0,92,0.00,,---,0.00,VWS V14.01,2013-10-05 08:21:00,
2013-10-05 04:26:00,70.0,67.3,30.07,NW,319,1.0,3.0,91,0.00,,---,0.00,VWS V14.01,2013-10-05 08:26:00,
2013-10-05 04:31:00,70.0,67.3,30.07,NW,319,1.0,2.0,91,0.00,,---,0.00,VWS V14.01,2013-10-05 08:31:00,
2013-10-05 04:36:00,69.9,67.2,30.07,NW,320,2.0,3.0,91,0.00,,---,0.00,VWS V14.01,2013-10-05 08:36:00,
2013-10-05 04:41:00,69.8,67.4,30.07,NW,320,1.0,3.0,92,0.00,,---,0.00,VWS V14.01,2013-10-05 08:41:00,
2013-10-05 04:46:00,69.7,67.3,30.07,NW,323,1.0,3.0,92,0.00,,---,0.00,VWS V14.01,2013-10-05 08:46:00,
2013-10-05 04:51:00,69.6,67.2,30.07,NNW,342,2.0,3.0,92,0.00,,---,0.00,VWS V14.01,2013-10-05 08:51:00,
2013-10-05 04:56:00,69.5,67.4,30.07,North,355,2.0,4.0,93,0.00,,---,0.00,VWS V14.01,2013-10-05 08:56:00,
2013-10-05 05:01:00,69.4,67.3,30.07,North,360,1.0,4.0,93,0.00,,---,0.00,VWS V14.01,2013-10-05 09:01:00,
2013-10-05 05:06:00,69.5,67.4,30.07,North,360,0.0,4.0,93,0.00,,---,0.00,VWS V14.01,2013-10-05 09:06:00,
2013-10-05 05:11:00,69.5,67.4,30.08,North,360,0.0,4.0,93,0.00,,---,0.00,VWS V14.01,2013-10-05 09:11:00,
2013-10-05 05:17:00,69.4,67.3,30.08,North,360,0.0,4.0,93,0.00,,---,0.00,VWS V14.01,2013-10-05 09:17:00,
2013-10-05 05:22:00,69.4,67.3,30.08,North,360,0.0,4.0,93,0.00,,---,0.00,VWS V14.01,2013-10-05 09:22:00,
2013-10-05 05:27:00,69.4,67.6,30.08,North,355,1.0,4.0,94,0.00,,---,0.00,VWS V14.01,2013-10-05 09:27:00,
2013-10-05 05:32:00,69.5,67.7,30.08,North,355,2.0,2.0,94,0.00,,---,0.00,VWS V14.01,2013-10-05 09:32:00,
2013-10-05 05:37:00,69.5,67.7,30.08,North,355,3.0,4.0,94,0.00,,---,0.00,VWS V14.01,2013-10-05 09:37:00,
2013-10-05 05:42:00,69.6,68.1,30.08,NNW,344,4.0,6.0,95,0.00,,---,0.00,VWS V14.01,2013-10-05 09:42:00,
2013-10-05 05:47:00,69.5,68.0,30.08,NNW,336,4.0,6.0,95,0.00,,---,0.00,VWS V14.01,2013-10-05 09:47:00,
2013-10-05 05:52:00,69.4,67.9,30.08,NNW,337,3.0,6.0,95,0.00,,---,0.00,VWS V14.01,2013-10-05 09:52:00,
2013-10-05 05:57:00,69.4,67.9,30.08,NNW,337,2.0,6.0,95,0.00,,---,0.00,VWS V14.01,2013-10-05 09:57:00,
2013-10-05 06:02:00,69.4,67.9,30.08,NNW,347,4.0,5.0,95,0.00,,---,0.00,VWS V14.01,2013-10-05 10:02:00,
2013-10-05 06:07:00,69.3,67.8,30.09,NNW,340,4.0,6.0,95,0.00,,---,0.00,VWS V14.01,2013-10-05 10:07:00,
2013-10-05 06:12:00,69.3,67.8,30.09,NNW,336,5.0,6.0,95,0.00,,---,0.00,VWS V14.01,2013-10-05 10:12:00,
2013-10-05 06:17:00,69.2,68.0,30.09,NNW,341,5.0,6.0,96,0.00,,---,0.00,VWS V14.01,2013-10-05 10:17:00,
2013-10-05 06:22:00,69.1,67.9,30.09,NNW,343,4.0,6.0,96,0.00,,---,0.00,VWS V14.01,2013-10-05 10:22:00,
2013-10-05 06:27:00,69.0,67.8,30.09,NNW,344,4.0,4.0,96,0.00,,---,0.00,VWS V14.01,2013-10-05 10:27:00,
2013-10-05 06:32:00,68.9,67.7,30.09,NNW,346,4.0,5.0,96,0.00,,---,0.00,VWS V14.01,2013-10-05 10:32:00,
2013-10-05 06:38:00,68.7,67.5,30.09,NNW,346,5.0,5.0,96,0.00,,---,0.00,VWS V14.01,2013-10-05 10:38:00,
2013-10-05 06:43:00,68.7,67.5,30.09,NNW,346,4.0,6.0,96,0.00,,---,0.00,VWS V14.01,2013-10-05 10:43:00,
2013-10-05 06:48:00,68.7,67.5,30.09,NNW,346,3.0,6.0,96,0.00,,---,0.00,VWS V14.01,2013-10-05 10:48:00,
2013-10-05 06:53:00,68.5,67.3,30.10,NNW,346,4.0,6.0,96,0.00,,---,0.00,VWS V14.01,2013-10-05 10:53:00,
2013-10-05 06:58:00,68.3,67.1,30.09,NNW,344,3.0,3.0,96,0.00,,---,0.00,VWS V14.01,2013-10-05 10:58:00,
2013-10-05 07:03:00,68.2,67.0,30.10,NNW,342,3.0,4.0,96,0.00,,---,0.00,VWS V14.01,2013-10-05 11:03:00,
2013-10-05 07:08:00,68.1,66.9,30.10,NNW,342,1.0,4.0,96,0.00,,---,0.00,VWS V14.01,2013-10-05 11:08:00,
2013-10-05 07:13:00,68.2,67.3,30.10,NNW,347,3.0,4.0,97,0.00,,---,0.00,VWS V14.01,2013-10-05 11:13:00,
2013-10-05 07:18:00,68.0,67.1,30.10,NNW,347,2.0,4.0,97,0.00,,---,0.00,VWS V14.01,2013-10-05 11:18:00,
2013-10-05 07:23:00,67.9,67.0,30.09,North,5,4.0,4.0,97,0.00,,---,0.00,VWS V14.01,2013-10-05 11:23:00,
2013-10-05 07:28:00,67.7,66.8,30.10,North,5,3.0,4.0,97,0.00,,---,0.00,VWS V14.01,2013-10-05 11:28:00,
2013-10-05 07:33:00,67.6,66.7,30.10,North,349,4.0,5.0,97,0.00,,---,0.00,VWS V14.01,2013-10-05 11:33:00,
2013-10-05 07:38:00,67.6,66.7,30.10,NNW,346,2.0,5.0,97,0.00,,---,0.00,VWS V14.01,2013-10-05 11:38:00,
2013-10-05 07:43:00,67.6,66.7,30.10,NNW,346,2.0,5.0,97,0.00,,---,0.00,VWS V14.01,2013-10-05 11:43:00,
2013-10-05 07:49:00,67.7,66.8,30.10,NNW,346,2.0,5.0,97,0.00,,---,0.00,VWS V14.01,2013-10-05 11:49:00,
2013-10-05 07:54:00,67.8,66.9,30.10,NNW,346,1.0,5.0,97,0.00,,---,0.00,VWS V14.01,2013-10-05 11:54:00,
2013-10-05 07:59:00,68.1,67.2,30.10,NNW,346,1.0,2.0,97,0.00,,---,0.00,VWS V14.01,2013-10-05 11:59:00,
2013-10-05 08:04:00,68.2,67.3,30.10,NNW,348,2.0,3.0,97,0.00,,---,0.00,VWS V14.01,2013-10-05 12:04:00,
2013-10-05 08:09:00,68.5,67.9,30.11,NNW,348,1.0,3.0,98,0.00,,---,0.00,VWS V14.01,2013-10-05 12:09:00,
2013-10-05 08:14:00,68.7,68.1,30.11,NNW,348,2.0,3.0,98,0.00,,---,0.00,VWS V14.01,2013-10-05 12:14:00,
2013-10-05 08:19:00,68.9,68.0,30.11,North,350,2.0,3.0,97,0.00,,---,0.00,VWS V14.01,2013-10-05 12:19:00,
2013-10-05 08:24:00,69.2,68.3,30.11,North,350,0.0,3.0,97,0.00,,---,0.00,VWS V14.01,2013-10-05 12:24:00,
2013-10-05 08:29:00,69.4,68.5,30.11,North,350,0.0,2.0,97,0.00,,---,0.00,VWS V14.01,2013-10-05 12:29:00,
2013-10-05 08:34:00,69.6,68.7,30.12,North,350,0.0,2.0,97,0.00,,---,0.00,VWS V14.01,2013-10-05 12:34:00,
2013-10-05 08:39:00,69.9,69.0,30.11,North,350,3.0,3.0,97,0.00,,---,0.00,VWS V14.01,2013-10-05 12:39:00,
2013-10-05 08:44:00,70.1,69.2,30.11,North,355,2.0,4.0,97,0.00,,---,0.00,VWS V14.01,2013-10-05 12:44:00,
2013-10-05 08:49:00,70.3,69.4,30.12,North,355,2.0,4.0,97,0.00,,---,0.00,VWS V14.01,2013-10-05 12:49:00,
2013-10-05 08:54:00,70.6,69.4,30.12,North,355,2.0,4.0,96,0.00,,---,0.00,VWS V14.01,2013-10-05 12:54:00,
2013-10-05 08:59:00,70.8,69.6,30.12,North,355,3.0,3.0,96,0.00,,---,0.00,VWS V14.01,2013-10-05 12:59:00,
2013-10-05 09:04:00,71.0,69.8,30.12,North,355,4.0,5.0,96,0.00,,---,0.00,VWS V14.01,2013-10-05 13:04:00,
2013-10-05 09:10:00,71.2,70.0,30.12,North,355,4.0,5.0,96,0.00,,---,0.00,VWS V14.01,2013-10-05 13:10:00,
2013-10-05 09:15:00,71.4,69.6,30.12,North,355,4.0,5.0,94,0.00,,---,0.00,VWS V14.01,2013-10-05 13:15:00,
2013-10-05 09:20:00,71.7,69.9,30.12,North,360,3.0,5.0,94,0.00,,---,0.00,VWS V14.01,2013-10-05 13:20:00,
2013-10-05 09:25:00,72.0,69.9,30.11,North,5,4.0,5.0,93,0.00,,---,0.00,VWS V14.01,2013-10-05 13:25:00,
2013-10-05 09:30:00,72.4,70.3,30.12,North,5,4.0,5.0,93,0.00,,---,0.00,VWS V14.01,2013-10-05 13:30:00,
2013-10-05 09:35:00,72.8,70.3,30.12,North,9,4.0,5.0,92,0.00,,---,0.00,VWS V14.01,2013-10-05 13:35:00,
2013-10-05 09:40:00,73.1,70.3,30.12,North,9,3.0,5.0,91,0.00,,---,0.00,VWS V14.01,2013-10-05 13:40:00,
2013-10-05 09:45:00,73.4,70.3,30.12,North,9,2.0,5.0,90,0.00,,---,0.00,VWS V14.01,2013-10-05 13:45:00,
2013-10-05 09:50:00,73.7,70.3,30.12,North,9,4.0,5.0,89,0.00,,---,0.00,VWS V14.01,2013-10-05 13:50:00,
2013-10-05 09:55:00,74.0,69.6,30.12,North,9,4.0,5.0,86,0.00,,---,0.00,VWS V14.01,2013-10-05 13:55:00,
2013-10-05 10:00:00,74.4,69.6,30.12,North,5,4.0,4.0,85,0.00,,---,0.00,VWS V14.01,2013-10-05 14:00:00,
2013-10-05 10:05:00,74.7,69.9,30.12,North,5,1.0,4.0,85,0.00,,---,0.00,VWS V14.01,2013-10-05 14:05:00,
2013-10-05 10:10:00,75.0,69.8,30.12,North,9,0.0,4.0,84,0.00,,---,0.00,VWS V14.01,2013-10-05 14:10:00,
2013-10-05 10:15:00,75.3,70.1,30.12,North,9,0.0,4.0,84,0.00,,---,0.00,VWS V14.01,2013-10-05 14:15:00,
2013-10-05 10:20:00,75.9,70.7,30.12,North,11,0.0,4.0,84,0.00,,---,0.00,VWS V14.01,2013-10-05 14:20:00,
2013-10-05 10:26:00,76.4,70.5,30.11,NNE,12,0.0,4.0,82,0.00,,---,0.00,VWS V14.01,2013-10-05 14:26:00,
2013-10-05 10:31:00,76.8,70.5,30.11,NNE,12,0.0,0.0,81,0.00,,---,0.00,VWS V14.01,2013-10-05 14:31:00,
2013-10-05 10:36:00,77.6,70.9,30.12,NNE,12,0.0,0.0,80,0.00,,---,0.00,VWS V14.01,2013-10-05 14:36:00,
2013-10-05 10:41:00,78.5,70.7,30.11,NNE,12,0.0,0.0,77,0.00,,---,0.00,VWS V14.01,2013-10-05 14:41:00,
2013-10-05 10:46:00,78.5,70.7,30.11,SW,223,0.0,3.0,77,0.00,,---,0.00,VWS V14.01,2013-10-05 14:46:00,
2013-10-05 10:51:00,78.6,71.6,30.11,SE,138,0.0,6.0,79,0.00,,---,0.00,VWS V14.01,2013-10-05 14:51:00,
2013-10-05 10:56:00,78.3,70.9,30.11,SE,139,0.0,6.0,78,0.00,,---,0.00,VWS V14.01,2013-10-05 14:56:00,
2013-10-05 11:01:00,78.4,71.3,30.11,SSE,159,1.0,6.0,79,0.00,,---,0.00,VWS V14.01,2013-10-05 15:01:00,
2013-10-05 11:06:00,78.5,71.4,30.11,SSE,165,3.0,6.0,79,0.00,,---,0.00,VWS V14.01,2013-10-05 15:06:00,
2013-10-05 11:11:00,78.7,71.6,30.11,South,174,1.0,6.0,79,0.00,,---,0.00,VWS V14.01,2013-10-05 15:11:00,
2013-10-05 11:16:00,78.9,71.1,30.11,SSE,151,5.0,6.0,77,0.00,,---,0.00,VWS V14.01,2013-10-05 15:16:00,
2013-10-05 11:21:00,78.6,70.8,30.11,SE,139,6.0,6.0,77,0.00,,---,0.00,VWS V14.01,2013-10-05 15:21:00,
2013-10-05 11:26:00,78.6,71.6,30.11,SSE,157,2.0,7.0,79,0.00,,---,0.00,VWS V14.01,2013-10-05 15:26:00,
2013-10-05 11:31:00,78.8,71.7,30.11,SE,146,5.0,6.0,79,0.00,,---,0.00,VWS V14.01,2013-10-05 15:31:00,
2013-10-05 11:37:00,79.2,71.8,30.11,South,178,6.0,6.0,78,0.00,,---,0.00,VWS V14.01,2013-10-05 15:37:00,
2013-10-05 11:42:00,79.3,71.5,30.11,South,175,6.0,6.0,77,0.00,,---,0.00,VWS V14.01,2013-10-05 15:42:00,
2013-10-05 11:47:00,79.1,71.3,30.11,SSE,153,5.0,7.0,77,0.00,,---,0.00,VWS V14.01,2013-10-05 15:47:00,
2013-10-05 11:52:00,78.7,71.3,30.11,SE,142,6.0,7.0,78,0.00,,---,0.00,VWS V14.01,2013-10-05 15:52:00,
2013-10-05 11:57:00,78.5,71.1,30.11,SSE,155,6.0,7.0,78,0.00,,---,0.00,VWS V14.01,2013-10-05 15:57:00,
2013-10-05 12:02:00,78.7,71.6,30.11,South,170,5.0,7.0,79,0.00,,---,0.00,VWS V14.01,2013-10-05 16:02:00,
2013-10-05 12:07:00,79.1,71.3,30.11,South,173,4.0,8.0,77,0.00,,---,0.00,VWS V14.01,2013-10-05 16:07:00,
2013-10-05 12:12:00,79.6,71.4,30.11,South,179,2.0,8.0,76,0.00,,---,0.00,VWS V14.01,2013-10-05 16:12:00,
2013-10-05 12:17:00,80.0,71.8,30.11,South,186,4.0,9.0,76,0.00,,---,0.00,VWS V14.01,2013-10-05 16:17:00,
2013-10-05 12:22:00,80.5,71.8,30.11,South,190,9.0,9.0,75,0.00,,---,0.00,VWS V14.01,2013-10-05 16:22:00,
2013-10-05 12:27:00,80.9,71.8,30.10,South,182,6.0,6.0,74,0.00,,---,0.00,VWS V14.01,2013-10-05 16:27:00,
2013-10-05 12:32:00,81.1,71.6,30.10,South,187,4.0,9.0,73,0.00,,---,0.00,VWS V14.01,2013-10-05 16:32:00,
2013-10-05 12:37:00,81.2,71.3,30.10,South,181,7.0,10.0,72,0.00,,---,0.00,VWS V14.01,2013-10-05 16:37:00,
2013-10-05 12:42:00,81.0,71.1,30.10,South,182,10.0,10.0,72,0.00,,---,0.00,VWS V14.01,2013-10-05 16:42:00,
2013-10-05 12:47:00,81.2,71.7,30.10,South,191,2.0,10.0,73,0.00,,---,0.00,VWS V14.01,2013-10-05 16:47:00,
2013-10-05 12:53:00,81.5,71.6,30.10,South,187,5.0,10.0,72,0.00,,---,0.00,VWS V14.01,2013-10-05 16:53:00,
2013-10-05 12:58:00,81.6,71.3,30.10,South,183,5.0,6.0,71,0.00,,---,0.00,VWS V14.01,2013-10-05 16:58:00,
2013-10-05 13:03:00,81.8,71.5,30.10,South,173,5.0,7.0,71,0.00,,---,0.00,VWS V14.01,2013-10-05 17:03:00,
2013-10-05 13:08:00,81.4,70.7,30.09,SSE,148,5.0,9.0,70,0.00,,---,0.00,VWS V14.01,2013-10-05 17:08:00,
2013-10-05 13:13:00,80.8,70.9,30.09,South,183,13.0,14.0,72,0.00,,---,0.00,VWS V14.01,2013-10-05 17:13:00,
2013-10-05 13:18:00,81.0,70.7,30.09,SSE,168,5.0,14.0,71,0.00,,---,0.00,VWS V14.01,2013-10-05 17:18:00,
2013-10-05 13:23:00,81.2,70.9,30.09,South,170,7.0,14.0,71,0.00,,---,0.00,VWS V14.01,2013-10-05 17:23:00,
2013-10-05 13:28:00,81.3,71.0,30.09,SSW,193,5.0,10.0,71,0.00,,---,0.00,VWS V14.01,2013-10-05 17:28:00,
2013-10-05 13:33:00,81.5,71.2,30.09,South,181,8.0,12.0,71,0.00,,---,0.00,VWS V14.01,2013-10-05 17:33:00,
2013-10-05 13:38:00,81.7,71.0,30.09,South,184,8.0,12.0,70,0.00,,---,0.00,VWS V14.01,2013-10-05 17:38:00,
2013-10-05 13:43:00,81.7,71.0,30.09,South,190,9.0,12.0,70,0.00,,---,0.00,VWS V14.01,2013-10-05 17:43:00,
2013-10-05 13:48:00,81.8,71.1,30.08,South,187,8.0,12.0,70,0.00,,---,0.00,VWS V14.01,2013-10-05 17:48:00,
2013-10-05 13:53:00,81.9,70.7,30.08,South,171,8.0,12.0,69,0.00,,---,0.00,VWS V14.01,2013-10-05 17:53:00,
2013-10-05 13:59:00,82.0,70.8,30.08,SSW,192,9.0,11.0,69,0.00,,---,0.00,VWS V14.01,2013-10-05 17:59:00,
2013-10-05 14:04:00,82.0,70.8,30.08,South,185,10.0,12.0,69,0.00,,---,0.00,VWS V14.01,2013-10-05 18:04:00,
2013-10-05 14:09:00,82.0,70.8,30.08,South,185,6.0,12.0,69,0.00,,---,0.00,VWS V14.01,2013-10-05 18:09:00,
2013-10-05 14:14:00,82.2,71.0,30.08,South,184,10.0,12.0,69,0.00,,---,0.00,VWS V14.01,2013-10-05 18:14:00,
2013-10-05 14:19:00,82.3,71.1,30.08,South,185,7.0,12.0,69,0.00,,---,0.00,VWS V14.01,2013-10-05 18:19:00,
2013-10-05 14:24:00,82.4,70.3,30.07,SSE,151,2.0,12.0,67,0.00,,---,0.00,VWS V14.01,2013-10-05 18:24:00,
2013-10-05 14:29:00,82.6,71.4,30.07,SSW,197,4.0,8.0,69,0.00,,---,0.00,VWS V14.01,2013-10-05 18:29:00,
2013-10-05 14:34:00,82.5,70.0,30.07,South,172,6.0,10.0,66,0.00,,---,0.00,VWS V14.01,2013-10-05 18:34:00,
2013-10-05 14:39:00,82.5,70.9,30.07,South,177,3.0,10.0,68,0.00,,---,0.00,VWS V14.01,2013-10-05 18:39:00,
2013-10-05 14:44:00,82.6,70.5,30.07,South,182,6.0,10.0,67,0.00,,---,0.00,VWS V14.01,2013-10-05 18:44:00,
2013-10-05 14:49:00,82.6,71.0,30.07,SSE,149,5.0,10.0,68,0.00,,---,0.00,VWS V14.01,2013-10-05 18:49:00,
2013-10-05 14:54:00,82.7,70.6,30.07,SSE,152,4.0,10.0,67,0.00,,---,0.00,VWS V14.01,2013-10-05 18:54:00,
2013-10-05 14:59:00,82.8,71.2,30.07,SSE,152,3.0,5.0,68,0.00,,---,0.00,VWS V14.01,2013-10-05 18:59:00,
2013-10-05 15:04:00,82.7,69.8,30.07,South,175,8.0,10.0,65,0.00,,---,0.00,VWS V14.01,2013-10-05 19:04:00,
2013-10-05 15:09:00,82.5,70.0,30.07,SSW,192,7.0,10.0,66,0.00,,---,0.00,VWS V14.01,2013-10-05 19:09:00,
2013-10-05 15:15:00,82.5,70.4,30.07,SSE,165,6.0,10.0,67,0.00,,---,0.00,VWS V14.01,2013-10-05 19:15:00,
2013-10-05 15:20:00,82.7,70.2,30.07,South,174,7.0,10.0,66,0.00,,---,0.00,VWS V14.01,2013-10-05 19:20:00,
2013-10-05 15:25:00,82.7,70.2,30.07,South,180,7.0,11.0,66,0.00,,---,0.00,VWS V14.01,2013-10-05 19:25:00,
2013-10-05 15:30:00,82.9,70.8,30.07,SSW,199,6.0,10.0,67,0.00,,---,0.00,VWS V14.01,2013-10-05 19:30:00,
2013-10-05 15:35:00,83.0,70.5,30.07,South,175,4.0,10.0,66,0.00,,---,0.00,VWS V14.01,2013-10-05 19:35:00,
2013-10-05 15:40:00,82.9,69.5,30.07,South,180,7.0,10.0,64,0.00,,---,0.00,VWS V14.01,2013-10-05 19:40:00,
2013-10-05 15:45:00,82.7,69.8,30.06,South,178,5.0,10.0,65,0.00,,---,0.00,VWS V14.01,2013-10-05 19:45:00,
2013-10-05 15:50:00,82.7,68.8,30.07,South,188,6.0,10.0,63,0.00,,---,0.00,VWS V14.01,2013-10-05 19:50:00,
2013-10-05 15:55:00,82.9,69.5,30.06,South,186,9.0,10.0,64,0.00,,---,0.00,VWS V14.01,2013-10-05 19:55:00,
2013-10-05 16:00:00,82.9,69.9,30.06,South,189,5.0,6.0,65,0.00,,---,0.00,VWS V14.01,2013-10-05 20:00:00,
2013-10-05 16:05:00,82.8,68.9,30.06,South,188,6.0,9.0,63,0.00,,---,0.00,VWS V14.01,2013-10-05 20:05:00,
2013-10-05 16:10:00,82.9,69.5,30.06,South,184,4.0,9.0,64,0.00,,---,0.00,VWS V14.01,2013-10-05 20:10:00,
2013-10-05 16:15:00,83.0,70.5,30.07,South,181,6.0,9.0,66,0.00,,---,0.00,VWS V14.01,2013-10-05 20:15:00,
2013-10-05 16:20:00,83.2,70.2,30.07,South,173,9.0,10.0,65,0.00,,---,0.00,VWS V14.01,2013-10-05 20:20:00,
2013-10-05 16:25:00,83.3,70.8,30.06,SSE,163,8.0,10.0,66,0.00,,---,0.00,VWS V14.01,2013-10-05 20:25:00,
2013-10-05 16:31:00,83.2,70.7,30.07,South,182,7.0,10.0,66,0.00,,---,0.00,VWS V14.01,2013-10-05 20:31:00,
2013-10-05 16:36:00,83.2,70.7,30.06,SSW,193,5.0,10.0,66,0.00,,---,0.00,VWS V14.01,2013-10-05 20:36:00,
2013-10-05 16:41:00,83.1,70.6,30.06,South,191,8.0,10.0,66,0.00,,---,0.00,VWS V14.01,2013-10-05 20:41:00,
2013-10-05 16:46:00,83.1,71.0,30.06,SSE,157,3.0,10.0,67,0.00,,---,0.00,VWS V14.01,2013-10-05 20:46:00,
2013-10-05 16:51:00,83.1,70.6,30.06,South,184,9.0,10.0,66,0.00,,---,0.00,VWS V14.01,2013-10-05 20:51:00,
2013-10-05 16:56:00,83.0,70.0,30.06,South,180,6.0,10.0,65,0.00,,---,0.00,VWS V14.01,2013-10-05 20:56:00,
2013-10-05 17:01:00,83.0,70.5,30.06,South,184,3.0,7.0,66,0.00,,---,0.00,VWS V14.01,2013-10-05 21:01:00,
2013-10-05 17:06:00,83.1,70.1,30.06,South,177,9.0,9.0,65,0.00,,---,0.00,VWS V14.01,2013-10-05 21:06:00,
2013-10-05 17:11:00,83.2,71.1,30.06,South,181,7.0,9.0,67,0.00,,---,0.00,VWS V14.01,2013-10-05 21:11:00,
2013-10-05 17:16:00,83.3,70.8,30.06,South,185,7.0,9.0,66,0.00,,---,0.00,VWS V14.01,2013-10-05 21:16:00,
2013-10-05 17:21:00,83.2,70.7,30.06,South,182,7.0,9.0,66,0.00,,---,0.00,VWS V14.01,2013-10-05 21:21:00,
2013-10-05 17:26:00,83.4,70.9,30.06,South,191,5.0,9.0,66,0.00,,---,0.00,VWS V14.01,2013-10-05 21:26:00,
2013-10-05 17:31:00,83.7,71.6,30.06,South,186,6.0,6.0,67,0.00,,---,0.00,VWS V14.01,2013-10-05 21:31:00,
2013-10-05 17:36:00,83.7,71.1,30.06,South,181,3.0,7.0,66,0.00,,---,0.00,VWS V14.01,2013-10-05 21:36:00,
2013-10-05 17:41:00,83.6,71.5,30.06,South,180,3.0,7.0,67,0.00,,---,0.00,VWS V14.01,2013-10-05 21:41:00,
2013-10-05 17:47:00,83.6,71.9,30.05,South,183,5.0,7.0,68,0.00,,---,0.00,VWS V14.01,2013-10-05 21:47:00,
2013-10-05 17:52:00,83.5,71.8,30.06,South,180,5.0,8.0,68,0.00,,---,0.00,VWS V14.01,2013-10-05 21:52:00,
2013-10-05 17:57:00,83.4,71.3,30.06,South,184,5.0,8.0,67,0.00,,---,0.00,VWS V14.01,2013-10-05 21:57:00,
2013-10-05 18:02:00,83.4,72.2,30.06,SSW,192,6.0,8.0,69,0.00,,---,0.00,VWS V14.01,2013-10-05 22:02:00,
2013-10-05 18:07:00,83.3,71.6,30.06,South,184,4.0,9.0,68,0.00,,---,0.00,VWS V14.01,2013-10-05 22:07:00,
2013-10-05 18:12:00,83.2,72.0,30.06,SSW,193,4.0,9.0,69,0.00,,---,0.00,VWS V14.01,2013-10-05 22:12:00,
2013-10-05 18:17:00,82.8,72.0,30.06,SE,146,5.0,9.0,70,0.00,,---,0.00,VWS V14.01,2013-10-05 22:17:00,
2013-10-05 18:22:00,82.5,72.2,30.06,South,186,7.0,9.0,71,0.00,,---,0.00,VWS V14.01,2013-10-05 22:22:00,
2013-10-05 18:27:00,82.2,71.9,30.06,South,179,3.0,9.0,71,0.00,,---,0.00,VWS V14.01,2013-10-05 22:27:00,
2013-10-05 18:32:00,81.6,71.7,30.06,South,178,5.0,8.0,72,0.00,,---,0.00,VWS V14.01,2013-10-05 22:32:00,
2013-10-05 18:37:00,81.1,71.6,30.06,South,175,4.0,8.0,73,0.00,,---,0.00,VWS V14.01,2013-10-05 22:37:00,
2013-10-05 18:42:00,80.6,71.9,30.06,South,186,5.0,8.0,75,0.00,,---,0.00,VWS V14.01,2013-10-05 22:42:00,
2013-10-05 18:47:00,80.0,72.2,30.06,South,184,4.0,8.0,77,0.00,,---,0.00,VWS V14.01,2013-10-05 22:47:00,
2013-10-05 18:52:00,79.4,71.6,30.06,SSE,165,2.0,8.0,77,0.00,,---,0.00,VWS V14.01,2013-10-05 22:52:00,
2013-10-05 18:57:00,78.9,71.8,30.06,South,182,6.0,6.0,79,0.00,,---,0.00,VWS V14.01,2013-10-05 22:57:00,
2013-10-05 19:03:00,78.5,71.8,30.06,South,184,6.0,7.0,80,0.00,,---,0.00,VWS V14.01,2013-10-05 23:03:00,
2013-10-05 19:08:00,78.1,72.2,30.06,South,178,4.0,7.0,82,0.00,,---,0.00,VWS V14.01,2013-10-05 23:08:00,
2013-10-05 19:13:00,77.8,72.2,30.06,South,177,1.0,7.0,83,0.00,,---,0.00,VWS V14.01,2013-10-05 23:13:00,
2013-10-05 19:18:00,77.5,71.9,30.06,South,179,4.0,7.0,83,0.00,,---,0.00,VWS V14.01,2013-10-05 23:18:00,
2013-10-05 19:23:00,77.3,72.1,30.06,South,169,2.0,7.0,84,0.00,,---,0.00,VWS V14.01,2013-10-05 23:23:00,
2013-10-05 19:28:00,77.0,72.2,30.06,South,186,6.0,6.0,85,0.00,,---,0.00,VWS V14.01,2013-10-05 23:28:00,
2013-10-05 19:33:00,76.8,72.3,30.06,SSE,159,1.0,6.0,86,0.00,,---,0.00,VWS V14.01,2013-10-05 23:33:00,
2013-10-05 19:38:00,76.7,72.2,30.06,South,170,3.0,6.0,86,0.00,,---,0.00,VWS V14.01,2013-10-05 23:38:00,
2013-10-05 19:43:00,76.6,72.1,30.06,South,174,5.0,6.0,86,0.00,,---,0.00,VWS V14.01,2013-10-05 23:43:00,
2013-10-05 19:48:00,76.5,72.3,30.06,South,169,4.0,6.0,87,0.00,,---,0.00,VWS V14.01,2013-10-05 23:48:00,
2013-10-05 19:53:00,76.4,72.2,30.06,SSE,168,4.0,7.0,87,0.00,,---,0.00,VWS V14.01,2013-10-05 23:53:00,
2013-10-05 19:58:00,76.3,72.2,30.06,South,185,6.0,6.0,87,0.00,,---,0.00,VWS V14.01,2013-10-05 23:58:00,
2013-10-05 20:03:00,76.3,72.5,30.06,SE,145,6.0,7.0,88,0.00,,---,0.00,VWS V14.01,2013-10-06 00:03:00,
2013-10-05 20:08:00,76.2,72.4,30.06,South,173,2.0,7.0,88,0.00,,---,0.00,VWS V14.01,2013-10-06 00:08:00,
2013-10-05 20:14:00,76.2,72.7,30.06,SSE,168,6.0,7.0,89,0.00,,---,0.00,VWS V14.01,2013-10-06 00:14:00,
2013-10-05 20:19:00,76.2,72.4,30.06,SE,136,5.0,7.0,88,0.00,,---,0.00,VWS V14.01,2013-10-06 00:19:00,
2013-10-05 20:24:00,76.2,72.4,30.06,SE,136,4.0,7.0,88,0.00,,---,0.00,VWS V14.01,2013-10-06 00:24:00,
2013-10-05 20:29:00,76.2,72.7,30.06,South,178,3.0,5.0,89,0.00,,---,0.00,VWS V14.01,2013-10-06 00:29:00,
2013-10-05 20:34:00,76.2,72.7,30.07,SSE,165,2.0,7.0,89,0.00,,---,0.00,VWS V14.01,2013-10-06 00:34:00,
2013-10-05 20:39:00,76.2,72.7,30.07,SE,138,4.0,7.0,89,0.00,,---,0.00,VWS V14.01,2013-10-06 00:39:00,
2013-10-05 20:44:00,76.2,72.7,30.07,South,169,2.0,7.0,89,0.00,,---,0.00,VWS V14.01,2013-10-06 00:44:00,
2013-10-05 20:49:00,76.2,72.7,30.07,SSE,161,4.0,7.0,89,0.00,,---,0.00,VWS V14.01,2013-10-06 00:49:00,
2013-10-05 20:54:00,76.2,72.7,30.07,SSE,151,1.0,7.0,89,0.00,,---,0.00,VWS V14.01,2013-10-06 00:54:00,
2013-10-05 20:59:00,76.2,73.1,30.07,SSE,163,2.0,5.0,90,0.00,,---,0.00,VWS V14.01,2013-10-06 00:59:00,
2013-10-05 21:04:00,76.2,73.1,30.07,SE,145,4.0,5.0,90,0.00,,---,0.00,VWS V14.01,2013-10-06 01:04:00,
2013-10-05 21:09:00,76.2,73.1,30.07,SE,135,2.0,6.0,90,0.00,,---,0.00,VWS V14.01,2013-10-06 01:09:00,
2013-10-05 21:14:00,76.1,73.0,30.07,SSE,157,1.0,6.0,90,0.00,,---,0.00,VWS V14.01,2013-10-06 01:14:00,
2013-10-05 21:19:00,76.1,73.0,30.07,SSE,150,1.0,6.0,90,0.00,,---,0.00,VWS V14.01,2013-10-06 01:19:00,
2013-10-05 21:24:00,76.2,73.1,30.08,SE,129,1.0,6.0,90,0.00,,---,0.00,VWS V14.01,2013-10-06 01:24:00,
2013-10-05 21:29:00,76.1,73.0,30.08,SE,129,4.0,4.0,90,0.00,,---,0.00,VWS V14.01,2013-10-06 01:29:00,
2013-10-05 21:35:00,76.1,73.3,30.08,SE,129,0.0,4.0,91,0.00,,---,0.00,VWS V14.01,2013-10-06 01:35:00,
2013-10-05 21:40:00,76.1,73.3,30.07,SE,129,0.0,4.0,91,0.00,,---,0.00,VWS V14.01,2013-10-06 01:40:00,
2013-10-05 21:45:00,76.1,73.3,30.08,SE,129,2.0,4.0,91,0.00,,---,0.00,VWS V14.01,2013-10-06 01:45:00,
2013-10-05 21:50:00,76.1,73.3,30.07,SE,129,3.0,5.0,91,0.00,,---,0.00,VWS V14.01,2013-10-06 01:50:00,
2013-10-05 21:55:00,76.1,73.3,30.08,SE,129,2.0,5.0,91,0.00,,---,0.00,VWS V14.01,2013-10-06 01:55:00,
2013-10-05 22:00:00,76.1,73.3,30.08,SE,130,0.0,5.0,91,0.00,,---,0.00,VWS V14.01,2013-10-06 02:00:00,
2013-10-05 22:05:00,76.1,73.3,30.08,SE,132,4.0,5.0,91,0.00,,---,0.00,VWS V14.01,2013-10-06 02:05:00,
2013-10-05 22:10:00,76.1,73.3,30.07,SE,131,3.0,6.0,91,0.00,,---,0.00,VWS V14.01,2013-10-06 02:10:00,
2013-10-05 22:15:00,76.2,73.4,30.08,SE,131,2.0,6.0,91,0.00,,---,0.00,VWS V14.01,2013-10-06 02:15:00,
2013-10-05 22:20:00,76.2,73.4,30.08,SE,140,1.0,6.0,91,0.00,,---,0.00,VWS V14.01,2013-10-06 02:20:00,
2013-10-05 22:25:00,76.2,73.4,30.07,SSE,163,4.0,6.0,91,0.00,,---,0.00,VWS V14.01,2013-10-06 02:25:00,
2013-10-05 22:30:00,76.2,73.4,30.07,SSE,164,3.0,4.0,91,0.00,,---,0.00,VWS V14.01,2013-10-06 02:30:00,
2013-10-05 22:35:00,76.2,73.1,30.07,South,185,6.0,6.0,90,0.00,,---,0.00,VWS V14.01,2013-10-06 02:35:00,
2013-10-05 22:40:00,76.1,73.0,30.08,South,181,4.0,6.0,90,0.00,,---,0.00,VWS V14.01,2013-10-06 02:40:00,
2013-10-05 22:45:00,76.0,72.9,30.07,South,170,2.0,6.0,90,0.00,,---,0.00,VWS V14.01,2013-10-06 02:45:00,
2013-10-05 22:51:00,76.0,72.9,30.07,South,174,0.0,6.0,90,0.00,,---,0.00,VWS V14.01,2013-10-06 02:51:00,
2013-10-05 22:56:00,76.0,72.9,30.07,SSE,162,2.0,6.0,90,0.00,,---,0.00,VWS V14.01,2013-10-06 02:56:00,
2013-10-05 23:01:00,76.0,72.9,30.07,South,173,3.0,5.0,90,0.00,,---,0.00,VWS V14.01,2013-10-06 03:01:00,
2013-10-05 23:06:00,76.0,72.9,30.07,South,176,4.0,5.0,90,0.00,,---,0.00,VWS V14.01,2013-10-06 03:06:00,
2013-10-05 23:11:00,76.0,72.9,30.07,SSE,157,3.0,5.0,90,0.00,,---,0.00,VWS V14.01,2013-10-06 03:11:00,
2013-10-05 23:16:00,76.0,72.9,30.07,South,178,4.0,6.0,90,0.00,,---,0.00,VWS V14.01,2013-10-06 03:16:00,
2013-10-05 23:21:00,76.0,72.9,30.07,South,190,4.0,6.0,90,0.00,,---,0.00,VWS V14.01,2013-10-06 03:21:00,
2013-10-05 23:26:00,75.9,73.1,30.07,South,190,5.0,6.0,91,0.00,,---,0.00,VWS V14.01,2013-10-06 03:26:00,
2013-10-05 23:31:00,75.9,73.1,30.07,South,179,4.0,6.0,91,0.00,,---,0.00,VWS V14.01,2013-10-06 03:31:00,
2013-10-05 23:36:00,75.9,73.1,30.07,South,175,0.0,6.0,91,0.00,,---,0.00,VWS V14.01,2013-10-06 03:36:00,
2013-10-05 23:41:00,75.8,73.0,30.07,South,180,3.0,6.0,91,0.00,,---,0.00,VWS V14.01,2013-10-06 03:41:00,
2013-10-05 23:46:00,75.8,73.0,30.07,South,171,0.0,6.0,91,0.00,,---,0.00,VWS V14.01,2013-10-06 03:46:00,
2013-10-05 23:51:00,75.8,73.0,30.07,SSE,161,1.0,6.0,91,0.00,,---,0.00,VWS V14.01,2013-10-06 03:51:00,
2013-10-05 23:56:00,75.8,73.0,30.07,SSE,148,2.0,6.0,91,0.00,,---,0.00,VWS V14.01,2013-10-06 03:56:00,